,,,PA_Meas_PMT16A,,PR_Meas_QMR101_102,,RH_Meas_QMH101,,SR_Meas_QMS101,,TA_Meas_QMH101,,GenWind,,GenWind,
date,time,status,PA,status,PR,status,RH,status,SR,status,TA,status,DirAvg,status,SpdAvg,
2009-11-23, 00:00:04,VALID,1003.03,VALID,0,VALID,93.5758,VALID,0,VALID,24.8132,VALID,62,VALID,0,
2009-11-23, 00:01:04,VALID,1003.01,VALID,0,VALID,93.6216,VALID,0,VALID,24.7724,VALID,59,VALID,0.330859,
2009-11-23, 00:02:04,VALID,1003,VALID,0,VALID,93.5987,VALID,0,VALID,24.7743,VALID,59,VALID,0.400781,
2009-11-23, 00:03:04,VALID,1003.01,VALID,0,VALID,93.5377,VALID,0,VALID,24.7548,VALID,59,VALID,0.266016,
2009-11-23, 00:04:04,VALID,1002.99,VALID,0,VALID,93.5377,VALID,0,VALID,24.7353,VALID,59,VALID,0.404297,
2009-11-23, 00:05:04,VALID,1002.97,VALID,0,VALID,93.4919,VALID,0,VALID,24.7159,VALID,59,VALID,0.366797,
2009-11-23, 00:06:04,VALID,1002.96,VALID,0,VALID,93.5072,VALID,0,VALID,24.6983,VALID,59,VALID,0.227344,
2009-11-23, 00:07:04,VALID,1002.97,VALID,0,VALID,93.5453,VALID,0,VALID,24.6361,VALID,59,VALID,0,
2009-11-23, 00:08:04,VALID,1002.94,VALID,0,VALID,93.6064,VALID,0,VALID,24.6574,VALID,59,VALID,0,
2009-11-23, 00:09:04,VALID,1002.92,VALID,0,VALID,93.6674,VALID,0,VALID,24.638,VALID,59,VALID,0,
2009-11-23, 00:10:04,VALID,1002.91,VALID,0,VALID,93.7284,VALID,0,VALID,24.638,VALID,59,VALID,0,
2009-11-23, 00:11:04,VALID,1002.89,VALID,0,VALID,93.7589,VALID,0,VALID,24.6398,VALID,59,VALID,0,
2009-11-23, 00:12:04,VALID,1002.88,VALID,0,VALID,93.7818,VALID,0,VALID,24.599,VALID,59,VALID,0,
2009-11-23, 00:13:04,VALID,1002.84,VALID,0,VALID,93.8123,VALID,0,VALID,24.6185,VALID,59,VALID,0,
2009-11-23, 00:14:04,VALID,1002.86,VALID,0,VALID,93.8429,VALID,0,VALID,24.5777,VALID,59,VALID,0,
2009-11-23, 00:15:04,VALID,1002.84,VALID,0,VALID,93.8657,VALID,0,VALID,24.5796,VALID,59,VALID,0,
2009-11-23, 00:16:04,VALID,1002.81,VALID,0,VALID,93.8886,VALID,0,VALID,24.5582,VALID,59,VALID,0,
2009-11-23, 00:17:04,VALID,1002.8,VALID,0,VALID,93.9039,VALID,0,VALID,24.5388,VALID,59,VALID,0,
2009-11-23, 00:18:04,VALID,1002.79,VALID,0,VALID,93.9573,VALID,0,VALID,24.5601,VALID,59,VALID,0,
2009-11-23, 00:19:04,VALID,1002.79,VALID,0,VALID,93.9573,VALID,0,VALID,24.5406,VALID,59,VALID,0,
2009-11-23, 00:20:04,VALID,1002.78,VALID,0,VALID,93.9802,VALID,0,VALID,24.5017,VALID,59,VALID,0,
2009-11-23, 00:21:04,VALID,1002.76,VALID,0,VALID,93.942,VALID,0,VALID,24.4804,VALID,59,VALID,0.398047,
2009-11-23, 00:22:04,VALID,1002.79,VALID,0,VALID,94.0107,VALID,0,VALID,24.4804,VALID,53,VALID,0.575391,
2009-11-23, 00:23:04,VALID,1002.76,VALID,0,VALID,94.087,VALID,0.100563,VALID,24.4804,VALID,49,VALID,0.508984,
2009-11-23, 00:24:04,VALID,1002.73,VALID,0,VALID,94.1175,VALID,0,VALID,24.4609,VALID,42,VALID,0.58125,
2009-11-23, 00:25:04,VALID,1002.72,VALID,0,VALID,94.148,VALID,0,VALID,24.4822,VALID,42,VALID,0.451172,
2009-11-23, 00:26:04,VALID,1002.71,VALID,0,VALID,94.1862,VALID,0,VALID,24.4609,VALID,42,VALID,0.429688,
2009-11-23, 00:27:04,VALID,1002.67,VALID,0,VALID,94.2472,VALID,0,VALID,24.4609,VALID,42,VALID,0.305469,
2009-11-23, 00:28:04,VALID,1002.67,VALID,0,VALID,94.2777,VALID,0,VALID,24.4609,VALID,42,VALID,0.219531,
2009-11-23, 00:29:04,VALID,1002.64,VALID,0,VALID,94.3006,VALID,0,VALID,24.4609,VALID,42,VALID,0.194531,
2009-11-23, 00:30:04,VALID,1002.64,VALID,0,VALID,94.3387,VALID,0,VALID,24.4609,VALID,42,VALID,0.229297,
2009-11-23, 00:31:04,VALID,1002.65,VALID,0,VALID,94.3464,VALID,0,VALID,24.4628,VALID,42,VALID,0.232422,
2009-11-23, 00:32:04,VALID,1002.68,VALID,0,VALID,94.354,VALID,0,VALID,24.459,VALID,42,VALID,0.292578,
2009-11-23, 00:33:04,VALID,1002.67,VALID,0,VALID,94.3845,VALID,0,VALID,24.4822,VALID,42,VALID,0.253516,
2009-11-23, 00:34:04,VALID,1002.68,VALID,0,VALID,94.3769,VALID,0,VALID,24.4822,VALID,42,VALID,0.246094,
2009-11-23, 00:35:04,VALID,1002.66,VALID,0,VALID,94.3769,VALID,0,VALID,24.4414,VALID,42,VALID,0.191797,
2009-11-23, 00:36:04,VALID,1002.63,VALID,0,VALID,94.354,VALID,0.100563,VALID,24.4025,VALID,42,VALID,0.503125,
2009-11-23, 00:37:04,VALID,1002.59,VALID,0,VALID,94.3387,VALID,0,VALID,24.4025,VALID,42,VALID,0.344922,
2009-11-23, 00:38:04,VALID,1002.59,VALID,0,VALID,94.3692,VALID,0,VALID,24.4238,VALID,42,VALID,0.184766,
2009-11-23, 00:39:04,VALID,1002.57,VALID,0,VALID,94.3845,VALID,0,VALID,24.4043,VALID,42,VALID,0.460938,
2009-11-23, 00:40:04,VALID,1002.55,VALID,0,VALID,94.3769,VALID,0.100563,VALID,24.4025,VALID,42,VALID,0.355078,
2009-11-23, 00:41:04,VALID,1002.53,VALID,0,VALID,94.3845,VALID,0,VALID,24.383,VALID,42,VALID,0.46875,
2009-11-23, 00:42:04,VALID,1002.53,VALID,0,VALID,94.4074,VALID,0.100563,VALID,24.4043,VALID,42,VALID,0.333984,
2009-11-23, 00:43:04,VALID,1002.54,VALID,0,VALID,94.4379,VALID,0,VALID,24.3849,VALID,42,VALID,0.181641,
2009-11-23, 00:44:04,VALID,1002.54,VALID,0,VALID,94.4608,VALID,0,VALID,24.3849,VALID,42,VALID,0.154687,
2009-11-23, 00:45:04,VALID,1002.54,VALID,0,VALID,94.4913,VALID,0,VALID,24.4238,VALID,42,VALID,0.107031,
2009-11-23, 00:46:04,VALID,1002.58,VALID,0,VALID,94.5371,VALID,0,VALID,24.4238,VALID,42,VALID,0.00820312,
2009-11-23, 00:47:04,VALID,1002.53,VALID,0,VALID,94.5523,VALID,0,VALID,24.4238,VALID,42,VALID,0.148438,
2009-11-23, 00:48:04,VALID,1002.53,VALID,0,VALID,94.5447,VALID,0,VALID,24.4433,VALID,42,VALID,0.0410156,
2009-11-23, 00:49:04,VALID,1002.51,VALID,0,VALID,94.5523,VALID,0,VALID,24.4433,VALID,42,VALID,0.316797,
2009-11-23, 00:50:04,VALID,1002.51,VALID,0,VALID,94.5447,VALID,0,VALID,24.4043,VALID,42,VALID,0.48125,
2009-11-23, 00:51:04,VALID,1002.5,VALID,0,VALID,94.5066,VALID,0,VALID,24.4043,VALID,42,VALID,0.527734,
2009-11-23, 00:52:04,VALID,1002.52,VALID,0,VALID,94.4913,VALID,0,VALID,24.3867,VALID,42,VALID,0.319531,
2009-11-23, 00:53:04,VALID,1002.51,VALID,0,VALID,94.5142,VALID,0,VALID,24.3654,VALID,20,VALID,0.61875,
2009-11-23, 00:54:04,VALID,1002.53,VALID,0,VALID,94.5142,VALID,0,VALID,24.3849,VALID,18,VALID,0.514844,
2009-11-23, 00:55:04,VALID,1002.51,VALID,0,VALID,94.5447,VALID,0,VALID,24.4043,VALID,16,VALID,0.436328,
2009-11-23, 00:56:04,VALID,1002.51,VALID,0,VALID,94.5829,VALID,0,VALID,24.4043,VALID,16,VALID,0.596484,
2009-11-23, 00:57:04,VALID,1002.47,VALID,0,VALID,94.6286,VALID,0,VALID,24.4238,VALID,16,VALID,0.388672,
2009-11-23, 00:58:04,VALID,1002.45,VALID,0,VALID,94.6439,VALID,0,VALID,24.422,VALID,16,VALID,0.0679687,
2009-11-23, 00:59:04,VALID,1002.45,VALID,0,VALID,94.6439,VALID,0,VALID,24.4043,VALID,16,VALID,0,
2009-11-23, 01:00:04,VALID,1002.45,VALID,0,VALID,94.6591,VALID,0,VALID,24.383,VALID,16,VALID,0,
2009-11-23, 01:01:04,VALID,1002.45,VALID,0,VALID,94.6668,VALID,0,VALID,24.4043,VALID,16,VALID,0,
2009-11-23, 01:02:04,VALID,1002.45,VALID,0,VALID,94.6591,VALID,0,VALID,24.4043,VALID,16,VALID,0,
2009-11-23, 01:03:04,VALID,1002.46,VALID,0,VALID,94.682,VALID,0,VALID,24.4025,VALID,16,VALID,0,
2009-11-23, 01:04:04,VALID,1002.44,VALID,0,VALID,94.7125,VALID,0,VALID,24.4646,VALID,16,VALID,0,
2009-11-23, 01:05:04,VALID,1002.4,VALID,0,VALID,94.7431,VALID,0,VALID,24.4433,VALID,16,VALID,0,
2009-11-23, 01:06:04,VALID,1002.39,VALID,0,VALID,94.7583,VALID,0,VALID,24.422,VALID,16,VALID,0,
2009-11-23, 01:07:04,VALID,1002.38,VALID,0,VALID,94.7736,VALID,0,VALID,24.4433,VALID,16,VALID,0,
2009-11-23, 01:08:04,VALID,1002.37,VALID,0,VALID,94.7431,VALID,0,VALID,24.4451,VALID,16,VALID,0,
2009-11-23, 01:09:04,VALID,1002.35,VALID,0,VALID,94.7507,VALID,0,VALID,24.4043,VALID,16,VALID,0,
2009-11-23, 01:10:04,VALID,1002.37,VALID,0,VALID,94.7202,VALID,0,VALID,24.3849,VALID,16,VALID,0,
2009-11-23, 01:11:04,VALID,1002.35,VALID,0,VALID,94.7125,VALID,0,VALID,24.3441,VALID,16,VALID,0,
2009-11-23, 01:12:04,VALID,1002.36,VALID,0,VALID,94.7125,VALID,0,VALID,24.3849,VALID,16,VALID,0.492969,
2009-11-23, 01:13:04,VALID,1002.37,VALID,0,VALID,94.7431,VALID,0,VALID,24.3636,VALID,16,VALID,0.529688,
2009-11-23, 01:14:04,VALID,1002.36,VALID,0,VALID,94.7354,VALID,0,VALID,24.3849,VALID,16,VALID,0.5,
2009-11-23, 01:15:04,VALID,1002.35,VALID,0,VALID,94.7583,VALID,0,VALID,24.4043,VALID,16,VALID,0.514453,
2009-11-23, 01:16:04,VALID,1002.37,VALID,0,VALID,94.7583,VALID,0,VALID,24.4043,VALID,16,VALID,0.501562,
2009-11-23, 01:17:04,VALID,1002.35,VALID,0,VALID,94.766,VALID,0,VALID,24.3849,VALID,16,VALID,0.386719,
2009-11-23, 01:18:04,VALID,1002.34,VALID,0,VALID,94.7888,VALID,0,VALID,24.3849,VALID,16,VALID,0.334766,
2009-11-23, 01:19:04,VALID,1002.34,VALID,0,VALID,94.7888,VALID,0,VALID,24.3654,VALID,16,VALID,0.104687,
2009-11-23, 01:20:04,VALID,1002.35,VALID,0,VALID,94.7736,VALID,0,VALID,24.3459,VALID,16,VALID,0.290625,
2009-11-23, 01:21:04,VALID,1002.34,VALID,0,VALID,94.7736,VALID,0,VALID,24.3265,VALID,16,VALID,0.258203,
2009-11-23, 01:22:04,VALID,1002.33,VALID,0,VALID,94.7888,VALID,0,VALID,24.3265,VALID,16,VALID,0.355859,
2009-11-23, 01:23:04,VALID,1002.34,VALID,0,VALID,94.7812,VALID,0,VALID,24.3283,VALID,16,VALID,0.203906,
2009-11-23, 01:24:04,VALID,1002.34,VALID,0,VALID,94.766,VALID,0,VALID,24.307,VALID,16,VALID,0,
2009-11-23, 01:25:04,VALID,1002.34,VALID,0,VALID,94.8041,VALID,0,VALID,24.307,VALID,16,VALID,0,
2009-11-23, 01:26:04,VALID,1002.36,VALID,0,VALID,94.8117,VALID,0,VALID,24.307,VALID,16,VALID,0,
2009-11-23, 01:27:04,VALID,1002.38,VALID,0,VALID,94.827,VALID,0,VALID,24.3459,VALID,16,VALID,0,
2009-11-23, 01:28:04,VALID,1002.39,VALID,0,VALID,94.8651,VALID,0,VALID,24.3441,VALID,16,VALID,0,
2009-11-23, 01:29:04,VALID,1002.39,VALID,0,VALID,94.8499,VALID,0,VALID,24.3459,VALID,16,VALID,0,
2009-11-23, 01:30:04,VALID,1002.38,VALID,0,VALID,94.8651,VALID,0,VALID,24.3654,VALID,16,VALID,0,
2009-11-23, 01:31:04,VALID,1002.38,VALID,0,VALID,94.888,VALID,0,VALID,24.3849,VALID,16,VALID,0,
2009-11-23, 01:32:04,VALID,1002.38,VALID,0,VALID,94.888,VALID,0,VALID,24.3636,VALID,16,VALID,0.277344,
2009-11-23, 01:33:04,VALID,1002.4,VALID,0,VALID,94.888,VALID,0,VALID,24.3849,VALID,16,VALID,0.413281,
2009-11-23, 01:34:04,VALID,1002.39,VALID,0,VALID,94.9033,VALID,0,VALID,24.3636,VALID,16,VALID,0.428516,
2009-11-23, 01:35:04,VALID,1002.41,VALID,0,VALID,94.8956,VALID,0,VALID,24.3654,VALID,15,VALID,0,
2009-11-23, 01:36:04,VALID,1002.38,VALID,0,VALID,94.9109,VALID,0,VALID,24.3654,VALID,15,VALID,0,
2009-11-23, 01:37:04,VALID,1002.43,VALID,0,VALID,94.9109,VALID,0,VALID,24.3654,VALID,15,VALID,0,
2009-11-23, 01:38:04,VALID,1002.42,VALID,0,VALID,94.9185,VALID,0,VALID,24.3654,VALID,15,VALID,0,
2009-11-23, 01:39:04,VALID,1002.41,VALID,0,VALID,94.9109,VALID,0,VALID,24.3636,VALID,15,VALID,0,
2009-11-23, 01:40:04,VALID,1002.4,VALID,0,VALID,94.9185,VALID,0,VALID,24.3654,VALID,15,VALID,0,
2009-11-23, 01:41:04,VALID,1002.39,VALID,0,VALID,94.9185,VALID,0,VALID,24.3867,VALID,15,VALID,0,
2009-11-23, 01:42:04,VALID,1002.39,VALID,0,VALID,94.9262,VALID,0.100563,VALID,24.3441,VALID,15,VALID,0,
2009-11-23, 01:43:04,VALID,1002.39,VALID,0,VALID,94.9185,VALID,0,VALID,24.3459,VALID,15,VALID,0,
2009-11-23, 01:44:04,VALID,1002.4,VALID,0,VALID,94.9185,VALID,0,VALID,24.3459,VALID,15,VALID,0,
2009-11-23, 01:45:04,VALID,1002.42,VALID,0,VALID,94.9338,VALID,0,VALID,24.3654,VALID,15,VALID,0,
2009-11-23, 01:46:04,VALID,1002.44,VALID,0,VALID,94.949,VALID,0,VALID,24.3849,VALID,15,VALID,0,
2009-11-23, 01:47:04,VALID,1002.41,VALID,0,VALID,94.949,VALID,0,VALID,24.4043,VALID,15,VALID,0,
2009-11-23, 01:48:04,VALID,1002.42,VALID,0,VALID,94.949,VALID,0,VALID,24.3422,VALID,15,VALID,0,
2009-11-23, 01:49:04,VALID,1002.4,VALID,0,VALID,94.9567,VALID,0,VALID,24.3654,VALID,14,VALID,0,
2009-11-23, 01:50:04,VALID,1002.4,VALID,0,VALID,94.9414,VALID,0,VALID,24.3654,VALID,14,VALID,0,
2009-11-23, 01:51:04,VALID,1002.4,VALID,0,VALID,94.9567,VALID,0,VALID,24.3654,VALID,14,VALID,0,
2009-11-23, 01:52:04,VALID,1002.38,VALID,0,VALID,94.949,VALID,0,VALID,24.3459,VALID,14,VALID,0,
2009-11-23, 01:53:04,VALID,1002.4,VALID,0,VALID,94.9414,VALID,0,VALID,24.3265,VALID,14,VALID,0,
2009-11-23, 01:54:04,VALID,1002.38,VALID,0,VALID,94.9338,VALID,0,VALID,24.3265,VALID,14,VALID,0,
2009-11-23, 01:55:04,VALID,1002.39,VALID,0,VALID,94.9338,VALID,0,VALID,24.3265,VALID,14,VALID,0,
2009-11-23, 01:56:04,VALID,1002.39,VALID,0,VALID,94.9338,VALID,0,VALID,24.3459,VALID,14,VALID,0,
2009-11-23, 01:57:04,VALID,1002.38,VALID,0,VALID,94.949,VALID,0,VALID,24.3265,VALID,14,VALID,0,
2009-11-23, 01:58:04,VALID,1002.37,VALID,0,VALID,94.9338,VALID,0,VALID,24.3265,VALID,14,VALID,0,
2009-11-23, 01:59:04,VALID,1002.36,VALID,0,VALID,94.9567,VALID,0,VALID,24.3265,VALID,14,VALID,0,
2009-11-23, 02:00:04,VALID,1002.38,VALID,0,VALID,94.9567,VALID,0,VALID,24.3265,VALID,14,VALID,0,
2009-11-23, 02:01:04,VALID,1002.37,VALID,0,VALID,94.9643,VALID,0,VALID,24.3459,VALID,14,VALID,0,
2009-11-23, 02:02:04,VALID,1002.36,VALID,0,VALID,94.9872,VALID,0,VALID,24.3265,VALID,14,VALID,0,
2009-11-23, 02:03:04,VALID,1002.34,VALID,0,VALID,94.9796,VALID,0,VALID,24.307,VALID,14,VALID,0,
2009-11-23, 02:04:04,VALID,1002.31,VALID,0,VALID,94.9796,VALID,0,VALID,24.307,VALID,14,VALID,0,
2009-11-23, 02:05:04,VALID,1002.34,VALID,0,VALID,94.9719,VALID,0,VALID,24.3088,VALID,14,VALID,0,
2009-11-23, 02:06:04,VALID,1002.34,VALID,0,VALID,94.9719,VALID,0,VALID,24.2875,VALID,14,VALID,0,
2009-11-23, 02:07:04,VALID,1002.34,VALID,0,VALID,94.9872,VALID,0,VALID,24.2875,VALID,14,VALID,0,
2009-11-23, 02:08:04,VALID,1002.36,VALID,0,VALID,94.9872,VALID,0,VALID,24.3283,VALID,14,VALID,0,
2009-11-23, 02:09:04,VALID,1002.37,VALID,0,VALID,95.0253,VALID,0,VALID,24.3478,VALID,14,VALID,0,
2009-11-23, 02:10:04,VALID,1002.36,VALID,0,VALID,95.0253,VALID,0,VALID,24.3246,VALID,14,VALID,0,
2009-11-23, 02:11:04,VALID,1002.34,VALID,0,VALID,95.0177,VALID,0,VALID,24.3459,VALID,14,VALID,0,
2009-11-23, 02:12:04,VALID,1002.31,VALID,0,VALID,95.0253,VALID,0,VALID,24.3052,VALID,14,VALID,0,
2009-11-23, 02:13:04,VALID,1002.32,VALID,0,VALID,95.0101,VALID,0.100563,VALID,24.2839,VALID,14,VALID,0,
2009-11-23, 02:14:04,VALID,1002.3,VALID,0,VALID,95.0101,VALID,0,VALID,24.2857,VALID,14,VALID,0,
2009-11-23, 02:15:04,VALID,1002.3,VALID,0,VALID,95.0177,VALID,0,VALID,24.3052,VALID,14,VALID,0,
2009-11-23, 02:16:04,VALID,1002.28,VALID,0,VALID,95.0253,VALID,0.100563,VALID,24.3052,VALID,14,VALID,0,
2009-11-23, 02:17:04,VALID,1002.27,VALID,0,VALID,95.0253,VALID,0,VALID,24.3654,VALID,14,VALID,0,
2009-11-23, 02:18:04,VALID,1002.26,VALID,0,VALID,95.0406,VALID,0,VALID,24.3246,VALID,14,VALID,0,
2009-11-23, 02:19:04,VALID,1002.23,VALID,0,VALID,95.033,VALID,0,VALID,24.3052,VALID,14,VALID,0,
2009-11-23, 02:20:04,VALID,1002.21,VALID,0,VALID,95.033,VALID,0,VALID,24.2857,VALID,14,VALID,0,
2009-11-23, 02:21:04,VALID,1002.17,VALID,0,VALID,95.0253,VALID,0,VALID,24.2662,VALID,14,VALID,0,
2009-11-23, 02:22:04,VALID,1002.15,VALID,0,VALID,95.033,VALID,0,VALID,24.2857,VALID,14,VALID,0,
2009-11-23, 02:23:04,VALID,1002.16,VALID,0,VALID,95.0177,VALID,0.100563,VALID,24.2857,VALID,14,VALID,0,
2009-11-23, 02:24:04,VALID,1002.18,VALID,0,VALID,95.0482,VALID,0.100563,VALID,24.2857,VALID,14,VALID,0,
2009-11-23, 02:25:04,VALID,1002.14,VALID,0,VALID,95.0406,VALID,0,VALID,24.2662,VALID,14,VALID,0,
2009-11-23, 02:26:04,VALID,1002.16,VALID,0,VALID,95.0406,VALID,0.100563,VALID,24.2662,VALID,14,VALID,0,
2009-11-23, 02:27:04,VALID,1002.14,VALID,0,VALID,95.0482,VALID,0,VALID,24.2662,VALID,14,VALID,0,
2009-11-23, 02:28:04,VALID,1002.13,VALID,0,VALID,95.0406,VALID,0,VALID,24.2273,VALID,14,VALID,0,
2009-11-23, 02:29:04,VALID,1002.15,VALID,0,VALID,95.033,VALID,0,VALID,24.2486,VALID,14,VALID,0,
2009-11-23, 02:30:04,VALID,1002.1,VALID,0,VALID,95.033,VALID,0,VALID,24.2291,VALID,14,VALID,0,
2009-11-23, 02:31:04,VALID,1002.13,VALID,0,VALID,95.033,VALID,0,VALID,24.2291,VALID,14,VALID,0,
2009-11-23, 02:32:04,VALID,1002.12,VALID,0,VALID,95.0482,VALID,0,VALID,24.2486,VALID,14,VALID,0,
2009-11-23, 02:33:04,VALID,1002.12,VALID,0,VALID,95.0406,VALID,0,VALID,24.2097,VALID,14,VALID,0,
2009-11-23, 02:34:04,VALID,1002.1,VALID,0,VALID,95.0482,VALID,0,VALID,24.2097,VALID,14,VALID,0,
2009-11-23, 02:35:04,VALID,1002.13,VALID,0,VALID,95.0558,VALID,0,VALID,24.2291,VALID,14,VALID,0,
2009-11-23, 02:36:04,VALID,1002.12,VALID,0,VALID,95.0482,VALID,0,VALID,24.2291,VALID,14,VALID,0,
2009-11-23, 02:37:04,VALID,1002.1,VALID,0,VALID,95.0711,VALID,0,VALID,24.2291,VALID,14,VALID,0,
2009-11-23, 02:38:04,VALID,1002.07,VALID,0,VALID,95.0635,VALID,0,VALID,24.2097,VALID,14,VALID,0,
2009-11-23, 02:39:04,VALID,1002.11,VALID,0,VALID,95.0711,VALID,0,VALID,24.2097,VALID,14,VALID,0,
2009-11-23, 02:40:04,VALID,1002.1,VALID,0,VALID,95.0864,VALID,0,VALID,24.2078,VALID,14,VALID,0,
2009-11-23, 02:41:04,VALID,1002.12,VALID,0,VALID,95.0864,VALID,0,VALID,24.1902,VALID,14,VALID,0,
2009-11-23, 02:42:04,VALID,1002.08,VALID,0,VALID,95.0711,VALID,0,VALID,24.1689,VALID,14,VALID,0,
2009-11-23, 02:43:04,VALID,1002.12,VALID,0,VALID,95.0558,VALID,0,VALID,24.1726,VALID,14,VALID,0,
2009-11-23, 02:44:04,VALID,1002.12,VALID,0,VALID,95.0558,VALID,0,VALID,24.1318,VALID,14,VALID,0,
2009-11-23, 02:45:04,VALID,1002.1,VALID,0,VALID,95.0711,VALID,0,VALID,24.1105,VALID,14,VALID,0,
2009-11-23, 02:46:04,VALID,1002.12,VALID,0,VALID,95.0711,VALID,0,VALID,24.1318,VALID,14,VALID,0,
2009-11-23, 02:47:04,VALID,1002.14,VALID,0,VALID,95.0787,VALID,0,VALID,24.1318,VALID,14,VALID,0,
2009-11-23, 02:48:04,VALID,1002.13,VALID,0,VALID,95.0787,VALID,0,VALID,24.1513,VALID,14,VALID,0,
2009-11-23, 02:49:04,VALID,1002.14,VALID,0,VALID,95.0787,VALID,0,VALID,24.1513,VALID,14,VALID,0,
2009-11-23, 02:50:04,VALID,1002.09,VALID,0,VALID,95.1169,VALID,0,VALID,24.2097,VALID,14,VALID,0,
2009-11-23, 02:51:04,VALID,1002.1,VALID,0,VALID,95.1321,VALID,0,VALID,24.2291,VALID,14,VALID,0,
2009-11-23, 02:52:04,VALID,1002.08,VALID,0,VALID,95.1245,VALID,0,VALID,24.2097,VALID,14,VALID,0,
2009-11-23, 02:53:04,VALID,1002.08,VALID,0,VALID,95.1398,VALID,0,VALID,24.2097,VALID,14,VALID,0,
2009-11-23, 02:54:04,VALID,1002.1,VALID,0,VALID,95.1398,VALID,0,VALID,24.1707,VALID,14,VALID,0,
2009-11-23, 02:55:04,VALID,1002.09,VALID,0,VALID,95.1169,VALID,0,VALID,24.1513,VALID,14,VALID,0,
2009-11-23, 02:56:04,VALID,1002.11,VALID,0,VALID,95.094,VALID,0,VALID,24.1513,VALID,14,VALID,0,
2009-11-23, 02:57:04,VALID,1002.14,VALID,0,VALID,95.0711,VALID,0,VALID,24.1318,VALID,14,VALID,0,
2009-11-23, 02:58:04,VALID,1002.14,VALID,0,VALID,95.0711,VALID,0,VALID,24.1318,VALID,14,VALID,0,
2009-11-23, 02:59:04,VALID,1002.18,VALID,0,VALID,95.0711,VALID,0,VALID,24.0929,VALID,14,VALID,0,
2009-11-23, 03:00:04,VALID,1002.17,VALID,0,VALID,95.0711,VALID,0,VALID,24.1123,VALID,14,VALID,0,
2009-11-23, 03:01:04,VALID,1002.17,VALID,0,VALID,95.0787,VALID,0,VALID,24.1123,VALID,14,VALID,0,
2009-11-23, 03:02:04,VALID,1002.19,VALID,0,VALID,95.0711,VALID,0,VALID,24.0929,VALID,14,VALID,0,
2009-11-23, 03:03:04,VALID,1002.19,VALID,0,VALID,95.0558,VALID,0,VALID,24.0539,VALID,14,VALID,0,
2009-11-23, 03:04:04,VALID,1002.19,VALID,0,VALID,95.0482,VALID,0,VALID,24.0345,VALID,14,VALID,0,
2009-11-23, 03:05:04,VALID,1002.2,VALID,0,VALID,95.0406,VALID,0,VALID,24.0345,VALID,14,VALID,0,
2009-11-23, 03:06:04,VALID,1002.19,VALID,0,VALID,95.0406,VALID,0,VALID,24.0539,VALID,14,VALID,0,
2009-11-23, 03:07:04,VALID,1002.19,VALID,0,VALID,95.033,VALID,0,VALID,24.0326,VALID,14,VALID,0,
2009-11-23, 03:08:04,VALID,1002.19,VALID,0,VALID,95.0482,VALID,0,VALID,24.0539,VALID,14,VALID,0,
2009-11-23, 03:09:04,VALID,1002.19,VALID,0,VALID,95.0482,VALID,0,VALID,24.0345,VALID,14,VALID,0,
2009-11-23, 03:10:04,VALID,1002.2,VALID,0,VALID,95.0406,VALID,0,VALID,24.0539,VALID,14,VALID,0,
2009-11-23, 03:11:04,VALID,1002.2,VALID,0,VALID,95.0482,VALID,0,VALID,24.0734,VALID,14,VALID,0,
2009-11-23, 03:12:04,VALID,1002.21,VALID,0,VALID,95.0711,VALID,0,VALID,24.0947,VALID,14,VALID,0,
2009-11-23, 03:13:04,VALID,1002.17,VALID,0,VALID,95.0787,VALID,0,VALID,24.0697,VALID,14,VALID,0,
2009-11-23, 03:14:04,VALID,1002.16,VALID,0,VALID,95.0864,VALID,0,VALID,24.091,VALID,14,VALID,0,
2009-11-23, 03:15:04,VALID,1002.16,VALID,0,VALID,95.094,VALID,0,VALID,24.1318,VALID,14,VALID,0,
2009-11-23, 03:16:04,VALID,1002.14,VALID,0,VALID,95.1245,VALID,0,VALID,24.1123,VALID,14,VALID,0,
2009-11-23, 03:17:04,VALID,1002.13,VALID,0,VALID,95.1093,VALID,0,VALID,24.091,VALID,14,VALID,0,
2009-11-23, 03:18:04,VALID,1002.12,VALID,0,VALID,95.1245,VALID,0,VALID,24.13,VALID,14,VALID,0,
2009-11-23, 03:19:04,VALID,1002.14,VALID,0,VALID,95.1398,VALID,0.100563,VALID,24.1494,VALID,14,VALID,0,
2009-11-23, 03:20:04,VALID,1002.15,VALID,0,VALID,95.1321,VALID,0,VALID,24.13,VALID,14,VALID,0,
2009-11-23, 03:21:04,VALID,1002.16,VALID,0,VALID,95.1321,VALID,0.100563,VALID,24.1318,VALID,14,VALID,0,
2009-11-23, 03:22:04,VALID,1002.19,VALID,0,VALID,95.155,VALID,0,VALID,24.1105,VALID,14,VALID,0,
2009-11-23, 03:23:04,VALID,1002.2,VALID,0,VALID,95.1321,VALID,0,VALID,24.1105,VALID,14,VALID,0,
2009-11-23, 03:24:04,VALID,1002.21,VALID,0,VALID,95.1093,VALID,0,VALID,24.091,VALID,14,VALID,0,
2009-11-23, 03:25:04,VALID,1002.22,VALID,0,VALID,95.1245,VALID,0,VALID,24.0716,VALID,14,VALID,0,
2009-11-23, 03:26:04,VALID,1002.22,VALID,0,VALID,95.1169,VALID,0.100563,VALID,24.0716,VALID,14,VALID,0,
2009-11-23, 03:27:04,VALID,1002.25,VALID,0,VALID,95.0864,VALID,0.100563,VALID,24.0716,VALID,14,VALID,0,
2009-11-23, 03:28:04,VALID,1002.23,VALID,0,VALID,95.1169,VALID,0,VALID,24.0521,VALID,14,VALID,0,
2009-11-23, 03:29:04,VALID,1002.23,VALID,0,VALID,95.1169,VALID,0.100563,VALID,24.0326,VALID,14,VALID,0,
2009-11-23, 03:30:04,VALID,1002.24,VALID,0,VALID,95.1016,VALID,0.100563,VALID,24.0132,VALID,14,VALID,0,
2009-11-23, 03:31:04,VALID,1002.22,VALID,0,VALID,95.1016,VALID,0.100563,VALID,23.9919,VALID,14,VALID,0,
2009-11-23, 03:32:04,VALID,1002.23,VALID,0,VALID,95.0864,VALID,0,VALID,24.0132,VALID,14,VALID,0,
2009-11-23, 03:33:04,VALID,1002.25,VALID,0,VALID,95.0864,VALID,0,VALID,23.9937,VALID,14,VALID,0,
2009-11-23, 03:34:04,VALID,1002.27,VALID,0,VALID,95.0864,VALID,0.100563,VALID,23.9742,VALID,14,VALID,0,
2009-11-23, 03:35:04,VALID,1002.25,VALID,0,VALID,95.1169,VALID,0,VALID,23.9937,VALID,14,VALID,0,
2009-11-23, 03:36:04,VALID,1002.3,VALID,0,VALID,95.1016,VALID,0,VALID,23.9937,VALID,14,VALID,0,
2009-11-23, 03:37:04,VALID,1002.29,VALID,0,VALID,95.1016,VALID,0,VALID,23.9937,VALID,14,VALID,0,
2009-11-23, 03:38:04,VALID,1002.29,VALID,0,VALID,95.1321,VALID,0.100563,VALID,23.9742,VALID,14,VALID,0,
2009-11-23, 03:39:04,VALID,1002.3,VALID,0,VALID,95.1321,VALID,0,VALID,23.9548,VALID,14,VALID,0,
2009-11-23, 03:40:04,VALID,1002.33,VALID,0,VALID,95.1398,VALID,0.100563,VALID,23.9548,VALID,14,VALID,0,
2009-11-23, 03:41:04,VALID,1002.32,VALID,0,VALID,95.1245,VALID,0,VALID,23.9742,VALID,14,VALID,0,
2009-11-23, 03:42:04,VALID,1002.35,VALID,0,VALID,95.1321,VALID,0.100563,VALID,23.953,VALID,14,VALID,0,
2009-11-23, 03:43:04,VALID,1002.39,VALID,0,VALID,95.1245,VALID,0,VALID,23.9761,VALID,14,VALID,0,
2009-11-23, 03:44:04,VALID,1002.43,VALID,0,VALID,95.1398,VALID,0,VALID,23.9566,VALID,14,VALID,0,
2009-11-23, 03:45:04,VALID,1002.44,VALID,0,VALID,95.1474,VALID,0,VALID,23.9548,VALID,14,VALID,0,
2009-11-23, 03:46:04,VALID,1002.48,VALID,0,VALID,95.1398,VALID,0,VALID,23.9566,VALID,14,VALID,0,
2009-11-23, 03:47:04,VALID,1002.49,VALID,0,VALID,95.155,VALID,0,VALID,23.9566,VALID,14,VALID,0,
2009-11-23, 03:48:04,VALID,1002.5,VALID,0,VALID,95.155,VALID,0,VALID,23.9371,VALID,14,VALID,0,
2009-11-23, 03:49:04,VALID,1002.53,VALID,0,VALID,95.155,VALID,0,VALID,23.9779,VALID,14,VALID,0,
2009-11-23, 03:50:04,VALID,1002.56,VALID,0,VALID,95.1703,VALID,0,VALID,23.9566,VALID,14,VALID,0,
2009-11-23, 03:51:04,VALID,1002.55,VALID,0,VALID,95.1703,VALID,0,VALID,23.9566,VALID,14,VALID,0,
2009-11-23, 03:52:04,VALID,1002.57,VALID,0,VALID,95.1779,VALID,0,VALID,23.9371,VALID,14,VALID,0,
2009-11-23, 03:53:04,VALID,1002.55,VALID,0,VALID,95.1855,VALID,0,VALID,23.9371,VALID,14,VALID,0,
2009-11-23, 03:54:04,VALID,1002.58,VALID,0,VALID,95.1779,VALID,0,VALID,23.9353,VALID,14,VALID,0,
2009-11-23, 03:55:04,VALID,1002.54,VALID,0,VALID,95.1932,VALID,0,VALID,23.8964,VALID,14,VALID,0,
2009-11-23, 03:56:04,VALID,1002.56,VALID,0,VALID,95.1855,VALID,0,VALID,23.9177,VALID,14,VALID,0,
2009-11-23, 03:57:04,VALID,1002.54,VALID,0,VALID,95.1855,VALID,0,VALID,23.9177,VALID,14,VALID,0,